Location: Regona
(45.2000°N, 9.8167°E)
Time: 21:36:54
(UTC+00:00)

CZ-2D R/B - Pass Details

Date: 07 June 2020
Orbit: 791 x 845 km, 98.7° (Epoch: 14 July)

Event Time Altitude Azimuth Distance (km) Brightness Sun altitude
Rises 00:25:14 0° 21° (NNE) 3,307 6.9 -20.4°
Reaches altitude 10° 00:27:43 10° 29° (NNE) 2,369 5.7 -20.3°
Maximum altitude 00:32:36 39° 98° (E) 1,168 3.0 -20.0°
Enters shadow 00:35:02 25° 149° (SSE) 1,555 3.2 -19.9°
